Flag for Bosnia-Herzegovina Weather past 2 weeks in Sarajevo, Bosnia-Herzegovina

Now
57 °F

Clear.


Feels Like: 57 °F
Forecast: 49 / 79 °F
Wind: 2 mph from North

Location: Sarajevo / Butmir

Current Time: Aug 30, 2014 at 1:03:06 AM

Latest Report: Aug 30, 2014 at 12:00 AM


Visibility: 10 mi

Pressure: 30.12 "Hg

Humidity: 82%

Dew point: 52 °F

Location of SarajevoLocation

Historic Weather in Sarajevo — Graph

°F

Sarajevo temperature yesterday

Maximum temperature yesterday: 75 °F (at 2:30 PM)
Minimum temperature yesterday: 48 °F (at 5:00 AM)
Average temperature yesterday: 62 °F

Past Weeks' High & Low Weather Summary

 TemperatureHumidityPressure
High82 °F (Aug 20, 5:30 PM)100% (Aug 18, 8:00 AM)30.18 "Hg (Aug 18, 8:00 AM)
Low48 °F (Aug 18, 4:00 AM)37% (Aug 19, 4:00 PM)29.86 "Hg (Aug 27, 1:30 PM)
Average65 °F74%30.04 "Hg
* Reported Midnight between Aug 14 and Aug 15 — Midnight between Aug 29 and Aug 30, Sarajevo, Weather by CustomWeather, © 2014

Note: Actual official high and low records may vary slightly from our data, if they occured in-between our weather recording intervals... More about our weather records

Advertising

Sarajevo weather history for previous 24 hours

 ConditionsComfort  
Time TempWeatherWind HumidityBarometerVisibility
12:00 AM
Aug 30
57 °FClear.2 mph82%30.12 "Hg10 mi
11:00 PM
Aug 29
57 °FClear.No wind88%30.12 "Hg10 mi
9:30 PM63 °FClear.1 mph83%30.12 "Hg10 mi
9:00 PM64 °FClear.2 mph78%30.09 "Hg10 mi
8:30 PM64 °FClear.5 mph73%30.09 "Hg10 mi
8:00 PM66 °FSunny.2 mph73%30.09 "Hg10 mi
7:30 PM68 °FSunny.2 mph69%30.09 "Hg10 mi
7:00 PM72 °FSunny.3 mph61%30.07 "Hg10 mi
6:30 PM73 °FPassing clouds.5 mph57%30.07 "HgN/A
6:00 PM75 °FPassing clouds.7 mph54%30.07 "HgN/A
5:30 PM75 °FPassing clouds.6 mph50%30.07 "HgN/A
5:00 PM75 °FPassing clouds.6 mph50%30.07 "HgN/A
4:30 PM75 °FPassing clouds.5 mph54%30.07 "HgN/A
4:00 PM75 °FPassing clouds.6 mph50%30.07 "HgN/A
3:30 PM75 °FPassing clouds.6 mph47%30.09 "HgN/A
3:00 PM75 °FPassing clouds.7 mph47%30.09 "HgN/A
2:30 PM75 °FPassing clouds.3 mph44%30.09 "HgN/A
2:00 PM73 °FPassing clouds.3 mph50%30.09 "HgN/A
1:30 PM72 °FPassing clouds.2 mph50%30.09 "HgN/A
1:00 PM70 °FPassing clouds.3 mph53%30.12 "HgN/A
12:30 PM68 °FSunny.3 mph60%30.12 "Hg10 mi
12:00 PM66 °FSunny.2 mph64%30.12 "Hg10 mi
11:30 AM64 °FSunny.2 mph64%30.15 "Hg10 mi
11:00 AM63 °FSunny.3 mph68%30.15 "Hg10 mi
10:30 AM61 °FPassing clouds.2 mph72%30.15 "HgN/A
10:00 AM59 °FPassing clouds.1 mph72%30.18 "HgN/A
9:30 AM55 °FPassing clouds.2 mph82%30.18 "HgN/A
9:00 AM54 °FPassing clouds.1 mph94%30.18 "HgN/A
8:30 AM52 °FScattered clouds.1 mph94%30.18 "HgN/A
8:00 AM52 °FScattered clouds.No wind94%30.18 "Hg4 mi
7:30 AM50 °FScattered clouds.1 mph94%30.18 "Hg4 mi
7:00 AM48 °FPassing clouds.2 mph94%30.18 "Hg4 mi
6:30 AM48 °FPassing clouds.1 mph94%30.18 "Hg4 mi
6:00 AM48 °FPassing clouds.2 mph94%30.18 "HgN/A
5:30 AM48 °FClear.1 mph94%30.18 "Hg10 mi
5:00 AM48 °FClear.2 mph94%30.15 "Hg10 mi
4:00 AM50 °FClear.No wind94%30.18 "Hg10 mi
3:00 AM50 °FClear.1 mph94%30.15 "Hg10 mi
2:00 AM52 °FClear.2 mph94%30.18 "Hg10 mi
1:00 AM52 °FClear.1 mph94%30.15 "Hg10 mi
Weather by CustomWeather, © 2014

See weather overviewHow to use our weather pages